Weather History for Nassau, Bahamas

Change the Weather History Date:

Friday, August 24, 2012

  Actual Average Record
Temperature  
Mean Temperature 84 °F -  
Max Temperature 93 °F 88 °F 95 °F (2010)
Min Temperature 75 °F 74 °F 75 °F (2012)
Cooling Degree Days 19    
Growing Degree Days 34 (Base 50)    
Moisture  
Dew Point 75 °F    
Average Humidity 74    
Maximum Humidity 89    
Minimum Humidity 54    
Precipitation  
Precipitation 0.20 in 0.24 in - ()
Sea Level Pressure  
Sea Level Pressure 29.95 in    
Wind  
Wind Speed 8 mph ()    
Max Wind Speed 23 mph    
Max Gust Speed -    
Visibility 6.5 miles    
Events Rain , Thunderstorm    
Averages and records for this station are not official NWS values.
T = Trace of Precipitation, MM = Missing Value Source: Averaged Metar Reports

Daily Weather History Graph

Daily Weather History Graph

Search for Another Location

Airport:

Trip Planner

Search our weather history database for the weather conditions in past years. The results will help you decide how hot, cold, wet, or windy it might be!

Date:

Astronomy

Aug. 24, 2012 Rise Set
Actual Time 6:47 AM EDT 7:35 PM EDT
Civil Twilight 6:24 AM EDT 7:59 PM EDT
Nautical Twilight 5:56 AM EDT 8:27 PM EDT
Astronomical Twilight 5:28 AM EDT 8:55 PM EDT
Moon 1:46 PM EDT (8/24) No Moon Set
Length of Visible Light 13h 35m
Length of Day
12h 48m
Waxing Crescent, 51% of the Moon is Illuminated
Aug 24
Waxing Crescent
Aug 31
Full
Sep 8
Last Quarter
Sep 15
New
Sep 22
First Quarter

Hourly Weather History & Observations

Time (EDT) Temp. Heat Index Dew Point Humidity Pressure Visibility Wind Dir Wind Speed Gust Speed Precip Events Conditions
12:00 AM 82.4 °F 90.9 °F 77.0 °F 84% 30.01 in 6.2 mi NE 3.5 mph - N/A Rain , Thunderstorm Light Thunderstorms and Rain
1:00 AM 82.4 °F 89.5 °F 75.2 °F 79% 29.99 in 6.2 mi NE 5.8 mph - N/A   Mostly Cloudy
2:00 AM 83 °F - 76 °F 75% 29.98 in 9 mi NE 8.1 mph - -  
2:00 AM 84.2 °F 94.1 °F 77.0 °F 79% 29.97 in 6.2 mi NE 8.1 mph - N/A   Mostly Cloudy
3:00 AM 82.4 °F 89.5 °F 75.2 °F 79% 29.97 in 6.2 mi NE 9.2 mph - N/A   Mostly Cloudy
5:00 AM 84 °F - 75 °F 68% 29.96 in 8 mi ENE 11.5 mph - - Thunderstorm Thunderstorm
5:00 AM 84.2 °F 92.3 °F 75.2 °F 74% 29.96 in 6.2 mi ENE 11.5 mph - N/A   Mostly Cloudy
6:00 AM 78.8 °F - 71.6 °F 78% 29.94 in 6.2 mi NE 4.6 mph - N/A   Mostly Cloudy
7:00 AM 80.6 °F 86.2 °F 75.2 °F 84% 29.96 in 6.2 mi NE 11.5 mph - N/A   Mostly Cloudy
8:00 AM 84 °F - 78 °F 79% 29.97 in 8 mi NE 11.5 mph - - Rain Light Rain Showers
8:00 AM 84.2 °F 96.1 °F 78.8 °F 84% 29.96 in 6.2 mi NE 11.5 mph - N/A   Mostly Cloudy
9:00 AM 84.2 °F 94.1 °F 77.0 °F 79% 29.97 in 6.2 mi NE 5.8 mph - N/A   Mostly Cloudy
10:00 AM 86.0 °F 96.9 °F 77.0 °F 74% 29.98 in 6.2 mi ENE 3.5 mph - N/A   Mostly Cloudy
11:00 AM 87 °F - 78 °F 67% 29.97 in 8 mi East 5.8 mph - -   Mostly Cloudy
11:00 AM 87.8 °F 99.7 °F 77.0 °F 70% 29.97 in 6.2 mi East 5.8 mph - N/A   Mostly Cloudy
12:00 PM 87.8 °F 99.7 °F 77.0 °F 70% 29.96 in 6.2 mi East 13.8 mph - N/A   Mostly Cloudy
1:00 PM 89.6 °F 102.2 °F 77.0 °F 66% 29.95 in 6.2 mi ENE 10.4 mph - N/A   Mostly Cloudy
2:00 PM 91 °F - 76 °F 54% 29.95 in 9 mi ENE 13.8 mph - -   Mostly Cloudy
2:00 PM 91.4 °F 105.1 °F 77.0 °F 63% 29.94 in 6.2 mi ENE 13.8 mph - N/A   Mostly Cloudy
3:00 PM 89.6 °F 99.8 °F 75.2 °F 62% 29.93 in 6.2 mi East 18.4 mph - N/A   Mostly Cloudy
4:00 PM 87.8 °F 97.6 °F 75.2 °F 66% 29.91 in 6.2 mi ENE 11.5 mph - N/A   Mostly Cloudy
5:00 PM 90 °F - 77 °F 57% 29.91 in 9 mi ENE 16.1 mph - -   Mostly Cloudy
5:00 PM 89.6 °F 102.2 °F 77.0 °F 66% 29.90 in 6.2 mi ENE 16.1 mph - N/A   Mostly Cloudy
6:00 PM 86.0 °F 96.9 °F 77.0 °F 74% 29.90 in 6.2 mi ENE 16.1 mph - N/A   Mostly Cloudy
6:19 PM 77.0 °F - 71.6 °F 83% 29.94 in 0.3 mi SSE 23.0 mph - N/A Rain Heavy Rain Showers
6:37 PM 75.2 °F - 71.6 °F 89% 29.91 in 6.2 mi ENE 13.8 mph - N/A Rain Light Rain Showers
7:00 PM 77.0 °F - 71.6 °F 83% 29.91 in 6.2 mi East 16.1 mph - N/A   Overcast
8:00 PM 79 °F - 72 °F 74% 29.91 in 8 mi East 9.2 mph - - Rain Light Rain Showers
8:00 PM 78.8 °F - 71.6 °F 78% 29.90 in 6.2 mi East 9.2 mph - N/A Rain Light Rain Showers
9:00 PM 82.4 °F 89.5 °F 75.2 °F 79% 29.92 in 6.2 mi East 8.1 mph - N/A   Mostly Cloudy
10:00 PM 84.2 °F 92.3 °F 75.2 °F 74% 29.94 in 5.6 mi ENE 4.6 mph - N/A Rain Light Rain Showers
11:00 PM 82.4 °F 87.2 °F 71.6 °F 70% 29.94 in 6.2 mi ENE 9.2 mph - N/A   Overcast